Location: Newark
(33.6439°N, 114.9881°W)
Time: 15:11:54
(UTC+00:00)

Tiros 1 - Pass Details

Date: 24 July 2019
Orbit: 631 x 664 km, 48.4° (Epoch: 23 August)

Event Time Altitude Azimuth Distance (km) Brightness Sun altitude
Rises 18:36:00 0° 249° (WSW) 2,968 10.4 69.1°
Reaches altitude 10° 18:38:26 10° 257° (WSW) 2,064 9.7 69.5°
Maximum altitude 18:42:58 42° 328° (NNW) 936 8.4 70.2°
Drops below altitude 10° 18:47:33 10° 40° (NE) 2,081 9.9 70.9°
Sets 18:50:01 0° 47° (NE) 2,996 10.6 71.3°
